When you browse on this site, cookies collect data to enhance your experience and personalize the content and advertising you see.
Visit our Privacy Policy to learn more. By continuing to use the site, you agree to this use of cookies and data.
EN

Hourly Weather Karelskiy

Today, 12 August, Wednesday

Time Temperature Precipitation Wind Pressure Humidity
00:00 +10°C° 0 mm 2 mps 761 mmHg 76%
01:00 +10°C° 0 mm 2 mps 761 mmHg 77%
02:00 +10°C° 0 mm 2 mps 761 mmHg 75%
03:00 +10°C° 0 mm 2 mps 761 mmHg 76%
04:00 +10°C° 0 mm 2 mps 761 mmHg 77%
05:00 +11°C° 0 mm 1 mps 761 mmHg 78%
06:00 +12°C° 0 mm 1 mps 761 mmHg 74%
07:00 +12°C° 0 mm 1 mps 761 mmHg 71%
08:00 +13°C° 0 mm 1 mps 761 mmHg 68%
09:00 +13°C° 0 mm 2 mps 760 mmHg 65%
10:00 +14°C° 0 mm 2 mps 760 mmHg 62%
11:00 +14°C° 0 mm 2 mps 760 mmHg 60%
12:00 +14°C° 0 mm 3 mps 760 mmHg 58%
13:00 +14°C° 0 mm 3 mps 760 mmHg 57%
14:00 +16°C° 0 mm 3 mps 760 mmHg 56%
15:00 +14°C° 0 mm 3 mps 759 mmHg 59%
16:00 +14°C° 0 mm 3 mps 759 mmHg 62%
17:00 +13°C° 0 mm 3 mps 759 mmHg 65%
18:00 +13°C° 0 mm 3 mps 758 mmHg 70%
19:00 +12°C° 0 mm 3 mps 758 mmHg 74%
20:00 +12°C° 0 mm 2 mps 758 mmHg 79%
21:00 +12°C° 0 mm 2 mps 758 mmHg 82%
22:00 +10°C° 0 mm 2 mps 758 mmHg 85%
23:00 +9°C° 0 mm 2 mps 758 mmHg 88%

Tomorrow, 13 August, Thursday

Time Temperature Precipitation Wind Pressure Humidity
00:00 +11°C° 0.1 mm 1 mps 757 mmHg 88%
01:00 +11°C° 0.1 mm 1 mps 757 mmHg 88%
02:00 +11°C° 0.1 mm 1 mps 757 mmHg 88%
03:00 +11°C° 0.1 mm 1 mps 757 mmHg 90%
04:00 +11°C° 0.1 mm 1 mps 757 mmHg 91%
05:00 +11°C° 0.1 mm 1 mps 756 mmHg 92%
06:00 +11°C° 0.5 mm 1 mps 756 mmHg 92%
07:00 +12°C° 0.5 mm 1 mps 756 mmHg 92%
08:00 +12°C° 0.5 mm 1 mps 756 mmHg 92%
09:00 +12°C° 0.3 mm 1 mps 756 mmHg 91%
10:00 +12°C° 0.3 mm 1 mps 756 mmHg 91%
11:00 +13°C° 0.3 mm 1 mps 755 mmHg 90%
12:00 +13°C° 0.1 mm 1 mps 755 mmHg 86%
13:00 +14°C° 0.1 mm 1 mps 755 mmHg 82%
14:00 +15°C° 0.1 mm 1 mps 755 mmHg 78%
15:00 +15°C° 0.1 mm 1 mps 755 mmHg 75%
16:00 +15°C° 0.1 mm 1 mps 755 mmHg 72%
17:00 +15°C° 0.1 mm 1 mps 755 mmHg 69%
18:00 +14°C° 0 mm 1 mps 755 mmHg 74%
19:00 +13°C° 0 mm 1 mps 755 mmHg 80%
20:00 +12°C° 0 mm 1 mps 755 mmHg 86%
21:00 +11°C° 0 mm 1 mps 755 mmHg 87%
22:00 +11°C° 0 mm 1 mps 755 mmHg 89%
23:00 +10°C° 0 mm 1 mps 755 mmHg 90%

Day after tomorrow, 14 August, Friday

Time Temperature Precipitation Wind Pressure Humidity
00:00 +9°C° 0 mm 2 mps 755 mmHg 91%
01:00 +9°C° 0 mm 2 mps 754 mmHg 92%
02:00 +8°C° 0 mm 2 mps 754 mmHg 93%
03:00 +9°C° 0 mm 2 mps 754 mmHg 92%
04:00 +9°C° 0 mm 2 mps 754 mmHg 91%
05:00 +10°C° 0 mm 2 mps 754 mmHg 91%
06:00 +10°C° 0.1 mm 3 mps 753 mmHg 91%
07:00 +11°C° 0.1 mm 3 mps 753 mmHg 90%
08:00 +11°C° 0.1 mm 3 mps 752 mmHg 90%
09:00 +13°C° 0 mm 3 mps 752 mmHg 85%
10:00 +14°C° 0 mm 3 mps 752 mmHg 79%
11:00 +17°C° 0 mm 3 mps 752 mmHg 74%
12:00 +17°C° 0.3 mm 3 mps 751 mmHg 74%
13:00 +18°C° 0.3 mm 3 mps 751 mmHg 74%
14:00 +18°C° 0.3 mm 2 mps 751 mmHg 74%
15:00 +17°C° 0.2 mm 2 mps 751 mmHg 80%
16:00 +16°C° 0.2 mm 1 mps 750 mmHg 86%
17:00 +15°C° 0.2 mm 1 mps 750 mmHg 92%
18:00 +14°C° 0.1 mm 1 mps 750 mmHg 93%
19:00 +14°C° 0.1 mm 1 mps 750 mmHg 94%
20:00 +14°C° 0.1 mm 1 mps 750 mmHg 95%
21:00 +14°C° 0 mm 1 mps 750 mmHg 95%
22:00 +13°C° 0 mm 2 mps 750 mmHg 96%
23:00 +13°C° 0 mm 2 mps 750 mmHg 96%

15 August, Saturday

Time Temperature Precipitation Wind Pressure Humidity
00:00 +13°C° 0 mm 1 mps 750 mmHg 96%
01:00 +13°C° 0 mm 1 mps 750 mmHg 96%
02:00 +13°C° 0 mm 1 mps 750 mmHg 96%
03:00 +13°C° 0 mm 1 mps 750 mmHg 96%
04:00 +13°C° 0 mm 1 mps 750 mmHg 96%
05:00 +13°C° 0 mm 1 mps 750 mmHg 96%
06:00 +14°C° 0 mm 1 mps 750 mmHg 93%
07:00 +16°C° 0 mm 1 mps 750 mmHg 90%
08:00 +18°C° 0 mm 1 mps 750 mmHg 87%
09:00 +19°C° 0 mm 1 mps 750 mmHg 80%
10:00 +20°C° 0 mm 1 mps 750 mmHg 73%
11:00 +21°C° 0 mm 1 mps 750 mmHg 66%
12:00 +21°C° 0.1 mm 1 mps 750 mmHg 67%
13:00 +21°C° 0.1 mm 1 mps 750 mmHg 67%
14:00 +21°C° 0.1 mm 1 mps 750 mmHg 67%
15:00 +20°C° 0.1 mm 1 mps 749 mmHg 72%
16:00 +19°C° 0.1 mm 1 mps 749 mmHg 77%
17:00 +18°C° 0.1 mm 1 mps 749 mmHg 82%
18:00 +18°C° 0 mm 1 mps 749 mmHg 83%
19:00 +16°C° 0 mm 1 mps 749 mmHg 84%
20:00 +16°C° 0 mm 2 mps 749 mmHg 85%
21:00 +16°C° 0 mm 2 mps 749 mmHg 86%
22:00 +15°C° 0 mm 2 mps 749 mmHg 86%
23:00 +15°C° 0 mm 2 mps 748 mmHg 87%

16 August, Sunday

Time Temperature Precipitation Wind Pressure Humidity
00:00 +13°C° 0 mm 3 mps 748 mmHg 87%
01:00 +13°C° 0 mm 3 mps 748 mmHg 87%
02:00 +13°C° 0 mm 3 mps 748 mmHg 87%
03:00 +13°C° 0 mm 4 mps 747 mmHg 86%
04:00 +13°C° 0 mm 4 mps 747 mmHg 85%
05:00 +13°C° 0 mm 4 mps 747 mmHg 84%
06:00 +14°C° 0 mm 4 mps 747 mmHg 78%
07:00 +15°C° 0 mm 4 mps 747 mmHg 72%
08:00 +17°C° 0 mm 4 mps 747 mmHg 66%
09:00 +18°C° 0 mm 4 mps 747 mmHg 61%
10:00 +17°C° 0 mm 5 mps 748 mmHg 55%
11:00 +19°C° 0 mm 5 mps 748 mmHg 50%
12:00 +19°C° 0 mm 5 mps 749 mmHg 47%
13:00 +19°C° 0 mm 5 mps 749 mmHg 44%
14:00 +19°C° 0 mm 6 mps 750 mmHg 41%
15:00 +17°C° 0 mm 5 mps 750 mmHg 43%
16:00 +16°C° 0 mm 5 mps 751 mmHg 44%
17:00 +16°C° 0 mm 5 mps 751 mmHg 45%
18:00 +14°C° 0 mm 4 mps 751 mmHg 51%
19:00 +12°C° 0 mm 3 mps 752 mmHg 57%
20:00 +11°C° 0 mm 3 mps 752 mmHg 63%
21:00 +10°C° 0 mm 2 mps 752 mmHg 64%
22:00 +10°C° 0 mm 1 mps 752 mmHg 65%
23:00 +10°C° 0 mm 1 mps 752 mmHg 67%

17 August, Monday

Time Temperature Precipitation Wind Pressure Humidity
00:00 +9°C° 0 mm 1 mps 752 mmHg 69%
01:00 +8°C° 0 mm 2 mps 752 mmHg 71%
02:00 +8°C° 0 mm 2 mps 753 mmHg 73%
03:00 +8°C° 0 mm 2 mps 752 mmHg 74%
04:00 +8°C° 0 mm 2 mps 752 mmHg 75%
05:00 +8°C° 0 mm 2 mps 752 mmHg 77%
06:00 +10°C° 0 mm 2 mps 752 mmHg 72%
07:00 +12°C° 0 mm 2 mps 752 mmHg 67%
08:00 +13°C° 0 mm 3 mps 751 mmHg 63%
09:00 +14°C° 0 mm 3 mps 751 mmHg 58%
10:00 +14°C° 0 mm 3 mps 751 mmHg 54%
11:00 +16°C° 0 mm 3 mps 752 mmHg 49%
12:00 +15°C° 0 mm 4 mps 752 mmHg 48%
13:00 +15°C° 0 mm 4 mps 752 mmHg 47%
14:00 +17°C° 0 mm 4 mps 752 mmHg 45%
15:00 +15°C° 0 mm 4 mps 752 mmHg 47%
16:00 +15°C° 0 mm 4 mps 752 mmHg 48%
17:00 +14°C° 0 mm 4 mps 752 mmHg 49%
18:00 +13°C° 0 mm 4 mps 752 mmHg 54%
19:00 +11°C° 0 mm 3 mps 752 mmHg 60%
20:00 +10°C° 0 mm 3 mps 753 mmHg 65%
21:00 +9°C° 0 mm 3 mps 753 mmHg 67%
22:00 +8°C° 0 mm 3 mps 753 mmHg 69%
23:00 +8°C° 0 mm 3 mps 753 mmHg 71%
Show more